7 * 24
多渠道服务支持
RADUGA 31(“虹”31)是独联体(CIS)所属俄罗斯“虹”系列第一代地球同步轨道通信卫星,于1994年2月18日发射升空。该卫星由俄罗斯应用力学科研生产联合体研制,基于KAUR-3平台打造,属于苏联解体后独联体时期继承的通信卫星项目,主要为东半球(极区除外)提供军事通信、民用电视转播及电报电话服务,是“虹”系列第一代卫星组网运营的重要组成部分,推动了区域通信覆盖能力建设。
俄罗斯(独联体)
(CIS)
| 数据来源 | 国际轨道数据 |
| 星历时间: | 2026-09-11T07:54:30+0800 6小时前 查看轨道信息 |
| 半长轴: | 42169.579km |
| 偏心率: | 0.0001561 |
| 轨道倾角: | 14.102° |
| 近地点辐角 | 182.154° |
| 升交点赤经 | 347.588° |
| 平近点角 | 224.066° |
| 近地点: | 35784.859km |
| 远地点: | 35798.025km |
| 周期: | 1436.345分钟 |
| 每日圈数: | 1.002545 |